Weather History for Jefferson City, MO

Change the Weather History Date:

Tuesday, November 13, 2012

  Actual Average Record
Temperature  
Mean Temperature 5 °C -  
Max Temperature 12 °C 12 °C 27 °C (1999)
Min Temperature -2 °C 0 °C -16 °C (1986)
Degree Days  
Heating Degree Days 24    
Moisture  
Dew Point -4 °C    
Average Humidity 50    
Maximum Humidity 78    
Minimum Humidity 29    
Precipitation  
Precipitation 0.00 mm - - ()
Sea Level Pressure  
Sea Level Pressure 1031 hPa    
Wind  
Wind Speed 3 km/h (ESE)    
Max Wind Speed 10 km/h    
Max Gust Speed -    
Visibility 16 kilometers    
Events      
Averages and records for this station are not official NWS values.
T = Trace of Precipitation, MM = Missing Value Source: NWS Daily Summary

Daily Weather History Graph

Daily Weather History Graph

Search for Another Location

Airport:

Trip Planner

Search our weather history database for the weather conditions in past years. The results will help you decide how hot, cold, wet, or windy it might be!

Date:

Astronomy

Nov. 13, 2012 Rise Set
Actual Time 6:48 AM CST 4:56 PM CST
Civil Twilight 6:20 AM CST 5:24 PM CST
Nautical Twilight 5:48 AM CST 5:56 PM CST
Astronomical Twilight 5:17 AM CST 6:28 PM CST
Moon 6:27 AM CST (11/13) 4:50 PM CST (11/13)
Length of Visible Light 11h 04m
Length of Day
10h 07m
Waning Crescent, 0% of the Moon is Illuminated
Nov 13
Waning Crescent
Nov 13
New
Nov 20
First Quarter
Nov 28
Full
Dec 6
Last Quarter

Hourly Weather History & Observations

Time (CST) Temp. Windchill Dew Point Humidity Pressure Visibility Wind Dir Wind Speed Gust Speed Precip Events Conditions
12:53 AM -1.7 °C - -5.0 °C 78% 1031.1 hPa 16.1 km Calm Calm - N/A   Clear
1:53 AM -1.1 °C - -5.6 °C 72% 1031.2 hPa 16.1 km Calm Calm - N/A   Clear
2:53 AM 1.7 °C - -5.6 °C 59% 1031.5 hPa 16.1 km Calm Calm - N/A   Clear
3:53 AM -1.7 °C - -6.1 °C 72% 1031.6 hPa 16.1 km Calm Calm - N/A   Clear
4:53 AM -0.6 °C - -6.1 °C 67% 1031.7 hPa 16.1 km Calm Calm - N/A   Clear
5:53 AM 3.3 °C 1.3 °C -6.7 °C 48% 1032.3 hPa 16.1 km SE 7.4 km/h / 2.1 m/s - N/A   Clear
6:53 AM 3.9 °C 2.6 °C -5.0 °C 53% 1032.7 hPa 16.1 km ESE 5.6 km/h / 1.5 m/s - 0.0 mm   Clear
7:53 AM 3.3 °C 1.3 °C -4.4 °C 57% 1033.2 hPa 16.1 km ESE 7.4 km/h / 2.1 m/s - 0.0 mm   Clear
8:53 AM 7.8 °C 7.1 °C -2.8 °C 47% 1033.1 hPa 16.1 km ESE 5.6 km/h / 1.5 m/s - N/A   Clear
9:53 AM 10.6 °C - -1.7 °C 43% 1032.8 hPa 16.1 km ESE 5.6 km/h / 1.5 m/s - N/A   Clear
10:53 AM - - - N/A% 1033.1 hPa 16.1 km Calm Calm - N/A   Clear
11:53 AM 9.4 °C - -4.4 °C 38% 1031.4 hPa 16.1 km Variable 5.6 km/h / 1.5 m/s - N/A   Clear
12:53 PM 10.6 °C - -6.1 °C 31% 1030.4 hPa 16.1 km Variable 9.3 km/h / 2.6 m/s - N/A   Clear
1:53 PM 11.7 °C - -6.1 °C 29% 1029.4 hPa 16.1 km Calm Calm - N/A   Clear
2:53 PM 12.2 °C - -5.6 °C 29% 1028.8 hPa 16.1 km Variable 5.6 km/h / 1.5 m/s - 0.0 mm   Clear
3:53 PM 10.6 °C - -4.4 °C 35% 1029.0 hPa 16.1 km SE 7.4 km/h / 2.1 m/s - N/A   Clear
4:53 PM 8.9 °C - -3.3 °C 42% 1028.5 hPa 16.1 km East 9.3 km/h / 2.6 m/s - N/A   Clear
5:53 PM 6.7 °C 5.3 °C -3.3 °C 49% 1028.7 hPa 16.1 km ESE 7.4 km/h / 2.1 m/s - N/A   Clear
6:53 PM 6.1 °C 4.6 °C -3.3 °C 51% 1028.8 hPa 16.1 km ESE 7.4 km/h / 2.1 m/s - N/A   Clear
7:53 PM 5.6 °C 3.6 °C -3.3 °C 53% 1029.7 hPa 16.1 km SE 9.3 km/h / 2.6 m/s - N/A   Clear
8:53 PM 6.1 °C 4.2 °C -4.4 °C 47% 1030.0 hPa 16.1 km East 9.3 km/h / 2.6 m/s - N/A   Clear
9:53 PM 3.9 °C 1.5 °C -3.9 °C 57% 1029.9 hPa 16.1 km ESE 9.3 km/h / 2.6 m/s - N/A   Clear
10:53 PM 4.4 °C 2.6 °C -5.0 °C 51% 1031.0 hPa 16.1 km ESE 7.4 km/h / 2.1 m/s - N/A   Clear
11:53 PM 3.9 °C 2.0 °C -5.0 °C 53% 1030.1 hPa 16.1 km East 7.4 km/h / 2.1 m/s - N/A   Clear